Theta_e
347 340 335 331 316 317 310 312 316 318 319 325 327 324 320 323 319 316 341 339 339 342 350 353 357 356 355 355 354 353 353 353 352 352 351 351 350 350 350 350 351 350 350 348 346 344 343 343 342
338 334 332 324 314 308 309 314 316 320 324 328 327 325 323 320 330 333 334 341 340 344 350 351 356 356 356 354 354 353 353 352 352 351 350 350 349 349 348 349 349 349 348 347 346 344 343 343 344
336 332 324 318 314 309 310 314 317 323 326 325 324 328 325 324 332 336 338 343 342 345 349 353 356 357 356 355 354 354 353 352 352 351 350 350 349 349 349 350 349 347 345 345 345 345 346 345 345
333 327 323 315 310 314 314 317 322 323 323 326 325 320 329 336 334 337 343 343 340 343 348 354 357 357 355 354 354 353 352 351 351 350 350 350 350 350 350 350 350 349 345 344 345 346 346 343 344
326 324 315 312 311 315 318 319 324 321 323 324 324 320 326 334 341 343 343 343 338 342 347 350 356 356 355 355 354 353 353 352 352 351 351 351 350 350 350 351 350 349 344 342 343 344 345 343 343
315 320 310 308 312 315 319 321 324 322 324 324 322 322 325 336 341 342 344 340 339 341 347 348 354 355 355 355 355 356 355 353 352 352 352 351 350 350 350 349 350 350 346 343 345 345 344 344 342
313 313 309 310 312 314 317 322 322 322 324 322 326 319 326 334 340 342 342 340 340 342 344 348 352 352 354 356 357 357 357 355 353 353 353 351 350 350 351 350 350 350 348 346 345 342 338 337 336
317 315 309 312 311 312 319 322 325 324 323 329 329 318 319 334 341 341 339 338 339 341 342 346 350 350 351 349 354 355 354 354 355 353 352 351 350 348 347 348 351 348 347 346 342 337 335 333 333
315 310 306 308 311 314 319 321 322 327 324 325 328 328 329 339 340 337 334 335 336 340 342 344 343 347 348 349 348 352 354 353 353 353 352 349 346 345 343 346 346 348 348 344 338 335 332 329 330
311 308 307 312 317 316 320 322 322 322 322 324 326 330 335 338 337 333 332 331 335 337 342 344 343 344 347 347 349 348 347 351 351 352 352 347 344 342 342 342 345 349 350 340 336 333 330 326 328
308 307 309 310 314 319 320 320 322 321 319 324 324 327 334 336 336 335 336 337 338 341 345 346 347 349 345 335 335 339 341 347 350 351 349 345 341 341 342 336 341 350 342 337 330 329 330 326 328
305 309 309 311 316 318 318 321 318 321 323 326 329 331 333 335 336 337 337 338 340 342 344 345 345 347 345 335 334 337 336 341 348 349 346 342 340 341 342 336 336 341 336 331 330 330 331 329 328
306 308 309 314 316 319 320 319 318 319 323 325 330 331 332 333 335 337 340 340 342 341 343 342 344 346 343 339 339 341 342 345 346 345 344 340 339 339 341 338 333 334 332 331 330 331 329 329 328
310 309 314 317 319 319 318 318 318 318 325 328 329 329 331 333 335 335 335 336 336 336 338 342 344 345 344 342 343 341 343 344 346 345 345 342 340 341 337 339 335 335 332 331 330 329 329 330 328
311 311 314 316 318 317 318 315 314 319 328 327 328 330 331 333 333 333 334 332 335 336 338 340 343 342 342 343 342 339 338 339 342 344 345 342 343 340 339 339 340 336 332 331 330 330 329 328 327
310 311 309 313 317 316 317 311 317 323 326 325 327 328 330 331 332 333 334 335 337 335 335 338 339 342 342 341 339 338 338 339 343 345 345 342 341 342 342 340 339 337 332 330 330 329 327 326 326
310 306 307 309 317 316 316 311 318 325 326 325 325 327 328 332 334 335 334 334 338 334 337 343 342 338 343 343 343 342 342 342 343 344 342 340 339 338 339 338 338 336 333 331 329 328 326 324 324
304 305 308 309 314 317 314 313 318 322 323 324 326 326 328 329 332 337 339 341 339 337 339 338 341 338 338 337 344 344 343 342 342 339 339 339 339 337 338 337 337 335 334 333 329 326 327 324 322
307 309 309 311 313 311 310 311 313 316 319 321 323 324 326 329 333 336 338 337 336 335 334 335 335 336 335 335 338 339 340 341 339 332 331 330 329 330 334 333 334 334 331 330 329 326 323 321 320
311 308 308 309 312 312 310 309 313 316 320 322 322 325 327 329 331 335 334 332 331 333 335 335 335 337 337 334 334 337 339 339 333 332 332 331 329 328 327 328 327 328 325 326 324 323 318 315 315
308 309 308 307 309 310 310 308 311 314 321 324 325 326 328 329 330 332 332 334 335 333 332 332 334 337 336 336 337 337 338 334 330 329 328 328 326 326 325 324 324 324 323 320 321 321 319 314 317
306 308 308 308 307 302 308 299 308 310 316 321 325 326 327 329 332 332 332 330 330 329 332 333 333 332 331 333 330 330 326 324 325 324 324 324 325 323 321 322 321 321 320 320 319 319 319 317 313
307 310 310 309 307 306 305 303 305 310 311 317 323 325 328 329 330 328 326 327 327 329 329 328 329 328 328 328 327 324 323 322 323 321 321 321 321 320 318 318 317 316 315 316 317 318 318 317 314
311 310 309 308 307 301 302 303 303 308 309 315 320 323 324 324 323 324 325 325 324 326 326 327 327 326 326 324 323 321 319 318 316 315 314 313 314 314 316 316 315 316 316 315 316 317 317 316 315
309 307 301 299 301 299 303 303 304 309 312 316 317 320 321 322 321 321 321 322 323 323 325 324 325 323 322 321 319 318 317 317 315 314 312 312 311 312 315 316 316 315 317 317 317 317 316 316 314
308 306 302 293 297 300 304 300 305 311 315 317 318 319 320 321 320 320 321 322 321 323 323 323 322 319 319 318 317 317 317 313 313 313 313 312 312 313 316 315 316 316 317 317 316 314 315 315 315
308 307 307 302 300 300 302 304 309 312 314 314 316 317 317 318 319 319 321 322 322 322 321 320 319 318 317 316 316 315 315 314 313 314 314 313 315 314 315 316 315 316 316 314 314 312 311 314 313
311 310 304 305 296 293 299 300 304 309 312 312 313 314 316 318 317 319 320 321 321 321 319 319 318 316 315 315 314 314 314 314 314 314 314 314 315 315 315 315 315 314 314 315 315 313 311 311 312
309 308 305 305 302 298 296 301 309 312 313 312 314 316 317 318 317 317 319 321 321 320 318 318 317 315 314 314 314 313 313 314 315 314 315 315 316 315 315 314 311 311 313 314 312 309 309 309 310
311 307 305 303 299 301 301 302 312 314 314 315 314 316 317 318 317 317 318 320 321 320 319 318 316 314 314 314 313 313 314 314 314 314 315 315 315 316 315 315 314 314 313 311 308 309 311 310 309
Wind_Speed
12 7 3 3 2 0 2 3 2 1 1 2 9 3 2 2 1 4 3 9 10 16 14 15 14 13 11 10 9 9 9 8 8 7 6 5 4 4 4 4 5 6 7 7 8 9 9 10 10
7 3 2 1 1 5 5 1 3 3 5 8 8 5 2 2 2 5 9 5 12 14 12 13 14 12 12 11 10 10 9 9 8 7 6 5 4 3 2 3 5 6 7 7 8 8 8 8 9
3 1 3 3 1 3 4 1 3 5 6 3 3 3 2 3 2 8 3 12 15 14 13 12 15 13 13 13 12 10 9 8 8 7 5 3 2 1 2 3 4 5 6 6 7 8 8 9 9
1 3 2 2 2 0 3 3 4 8 3 3 5 5 3 4 5 4 13 13 15 13 12 12 12 13 11 10 9 7 6 5 4 3 3 2 1 2 2 2 3 5 6 7 7 7 8 8 9
1 1 3 3 2 4 5 4 3 5 4 4 2 4 5 2 3 10 13 13 14 12 10 10 10 9 10 9 9 8 8 7 5 4 3 3 3 3 4 3 3 2 2 4 5 5 7 7 8
1 1 3 6 5 3 5 3 4 4 3 3 3 7 4 0 6 10 9 11 11 11 9 5 5 5 6 7 7 8 8 8 8 8 7 6 5 5 4 4 5 5 1 3 5 7 8 8 8
2 2 2 4 4 6 2 4 3 2 3 3 5 6 2 5 4 7 6 7 7 5 5 4 0 2 5 8 12 12 10 8 7 7 7 6 6 6 6 6 6 5 3 2 7 8 9 8 7
3 1 1 4 3 5 1 7 4 1 3 5 1 2 3 6 10 9 9 9 6 7 5 2 7 8 6 5 4 11 14 12 9 8 7 6 5 5 6 7 9 6 4 5 9 7 8 6 7
2 1 3 5 3 2 4 6 2 2 4 3 4 1 3 16 13 11 8 7 6 5 5 11 7 8 4 2 2 5 11 14 14 11 9 6 6 6 7 6 10 9 7 11 9 8 7 6 7
2 3 6 3 5 3 7 7 7 4 5 6 3 4 11 14 12 8 7 7 6 5 8 10 5 5 3 0 7 7 6 6 7 11 9 6 6 7 7 8 10 11 9 10 10 9 7 3 2
3 5 3 2 6 5 7 8 6 7 6 6 8 9 12 13 9 8 6 5 5 5 5 7 1 2 4 4 6 4 4 5 6 9 8 6 6 5 5 3 4 4 9 6 6 5 3 2 2
4 8 7 3 4 6 5 7 5 9 2 4 4 14 12 11 8 6 6 6 5 4 3 5 3 2 5 3 5 5 7 7 6 7 8 6 5 7 5 3 1 2 3 4 3 3 3 4 3
4 4 3 5 5 2 5 3 2 4 6 5 13 13 12 10 10 9 8 5 3 4 4 3 4 6 5 6 4 4 7 7 8 7 7 6 7 6 4 3 3 2 3 4 4 3 3 3 3
2 2 8 6 8 5 3 1 2 11 7 10 15 14 12 12 12 10 8 6 2 6 4 4 4 4 3 6 9 1 2 7 8 7 9 9 6 7 5 4 3 3 4 4 4 4 4 2 4
2 1 6 14 3 5 6 2 10 15 7 15 13 13 12 12 10 8 7 4 7 7 9 6 5 4 6 5 8 5 7 8 6 8 9 7 7 7 6 5 3 3 4 6 5 5 4 4 5
3 3 4 12 7 3 4 8 18 14 13 14 12 10 11 9 9 6 7 3 3 5 9 5 4 5 5 7 7 7 9 9 8 7 6 7 6 7 5 4 3 2 4 4 6 5 5 5 6
8 8 7 4 12 2 5 6 16 12 16 13 8 7 7 7 5 5 1 1 7 7 7 7 6 3 5 7 8 9 10 8 7 6 4 4 3 3 4 4 3 2 3 4 5 5 4 5 6
5 6 6 5 7 17 17 14 15 15 15 10 7 6 4 4 3 6 5 7 5 6 7 7 6 7 9 8 6 5 5 5 4 4 6 9 7 7 5 4 3 3 3 3 3 4 3 6 6
10 12 14 8 3 13 13 17 16 12 13 5 5 7 2 3 7 5 7 7 8 11 13 12 11 11 9 6 7 7 7 7 6 7 11 10 10 10 9 7 6 4 4 5 4 4 5 4 3
14 15 8 11 15 15 16 16 12 16 12 11 7 6 7 7 7 10 10 10 12 12 13 13 12 10 8 5 5 4 5 4 5 4 7 10 11 11 9 10 8 8 5 5 4 3 3 2 4
6 7 9 16 9 8 8 14 13 11 14 13 13 9 9 9 11 11 13 11 11 13 13 13 14 12 10 11 7 6 3 3 5 7 7 8 10 10 11 10 8 8 6 5 5 5 6 7 6
2 3 8 15 9 5 6 5 8 11 13 14 12 12 10 10 11 11 13 14 13 13 12 13 13 13 12 12 9 11 8 7 6 6 7 8 10 10 10 9 9 7 6 7 6 6 7 6 7
2 4 12 8 9 5 7 4 5 5 9 12 14 12 11 10 9 11 11 12 12 12 13 12 13 13 12 12 11 9 10 7 6 7 9 9 8 9 10 10 9 8 7 7 8 8 8 5 5
8 8 9 4 1 2 5 3 4 2 4 5 9 12 11 10 11 11 11 11 11 11 11 12 13 14 14 14 14 14 12 11 9 10 9 8 8 8 10 10 9 8 8 8 8 8 8 7 7
2 2 3 4 1 1 3 3 4 2 4 5 6 8 7 7 8 9 11 12 13 14 13 11 13 13 13 14 13 13 13 12 11 11 9 11 9 8 9 10 9 8 8 8 8 8 7 7 7
4 1 1 3 3 3 0 2 5 2 2 5 5 6 6 6 8 12 12 10 10 10 10 11 11 11 11 11 11 11 11 8 7 9 8 7 7 7 9 9 9 9 9 8 8 7 6 6 7
3 2 2 6 1 3 1 2 4 3 5 6 7 8 8 7 7 8 7 7 8 8 8 8 8 8 9 9 9 10 10 10 9 9 8 7 7 8 9 9 9 9 9 9 9 7 9 8 7
3 6 1 2 2 2 1 3 2 8 9 4 4 4 3 2 5 7 6 6 6 5 5 6 7 8 8 9 9 9 9 9 8 8 9 9 8 9 9 9 9 9 9 9 9 8 8 8 7
1 2 5 3 3 1 1 1 1 10 8 4 2 1 2 0 5 7 6 5 5 4 6 6 7 9 9 9 10 9 9 9 9 8 9 9 9 9 9 9 10 9 9 10 9 9 9 8 8
1 2 1 2 2 2 3 2 1 5 6 4 3 2 3 1 4 7 7 6 5 5 5 6 7 8 8 9 9 9 9 9 10 10 10 10 10 9 9 10 10 11 10 11 10 10 10 10 9
Wind_Direction
133 148 135 213 207 299 76 42 283 272 110 71 135 151 203 72 338 1 352 167 158 155 162 168 171 172 165 161 160 158 152 144 139 137 132 127 117 102 83 64 50 45 46 46 47 49 45 41 41
147 149 169 283 26 36 70 297 352 25 41 125 120 112 148 90 92 96 129 163 164 154 163 168 172 174 171 172 175 172 168 163 157 155 152 150 150 141 93 62 47 33 32 38 38 37 34 32 30
149 354 296 40 73 8 355 27 71 94 103 128 114 34 42 46 79 149 139 155 159 163 169 170 176 181 181 183 186 186 182 173 173 173 170 171 167 88 42 19 19 20 27 31 38 36 29 22 33
324 176 128 356 13 297 286 1 112 127 100 72 105 81 92 354 140 171 146 155 162 166 173 169 184 188 191 193 192 196 197 194 199 194 187 200 264 310 322 340 6 10 5 10 28 43 48 35 32
33 310 13 1 320 281 265 303 177 120 104 89 25 97 91 49 82 141 149 159 166 168 175 178 193 200 202 204 205 210 210 204 204 217 234 257 273 284 299 309 316 312 358 35 32 48 73 46 41
106 291 1 344 327 297 288 272 172 106 84 91 104 123 121 327 156 151 153 164 170 167 168 166 188 254 277 266 241 236 226 217 212 218 219 225 239 249 253 259 255 249 256 35 44 77 77 72 53
39 10 351 293 301 302 338 114 176 124 72 69 126 139 100 181 133 135 132 154 159 148 135 141 126 221 258 292 308 296 275 247 231 237 240 243 258 273 276 266 257 253 236 68 96 88 78 68 55
109 117 185 255 317 289 41 131 157 174 62 105 194 95 150 132 123 151 149 144 130 115 118 188 201 206 203 246 305 305 294 288 268 251 258 259 268 274 273 286 244 249 220 120 114 102 97 83 76
150 190 237 259 188 258 150 170 115 74 135 181 172 191 67 122 147 149 131 126 119 107 188 190 215 220 259 274 278 314 321 303 283 263 246 233 253 262 268 274 270 248 208 151 139 123 103 107 92
218 244 239 227 162 211 180 181 157 183 192 207 159 82 123 141 151 141 156 141 148 165 227 229 233 205 176 62 358 341 347 304 290 288 285 275 288 286 293 288 274 248 199 155 143 126 115 194 44
150 249 305 317 219 222 201 178 170 211 225 230 200 138 143 145 151 157 149 158 166 196 249 16 275 343 108 75 346 298 319 303 287 279 277 289 287 277 272 281 293 200 176 183 180 152 166 111 85
254 254 256 332 156 185 192 142 183 213 226 17 135 145 144 152 149 145 129 124 150 196 253 357 2 204 168 148 171 282 293 289 284 275 269 269 270 268 255 247 209 208 199 189 186 196 162 177 142
228 293 46 332 162 203 142 199 208 328 275 64 128 139 133 132 118 108 107 137 165 259 355 311 205 215 178 178 216 253 256 281 279 269 255 252 276 277 264 255 246 261 232 227 222 219 223 207 183
238 267 46 28 109 111 207 157 151 23 15 111 132 129 130 128 113 110 104 105 99 360 350 311 259 266 215 218 231 260 304 284 285 284 269 251 260 272 263 257 245 284 271 270 260 248 252 260 273
301 4 76 37 64 70 321 211 43 6 98 105 115 116 113 98 97 97 125 159 47 356 331 330 326 327 320 287 284 306 273 279 311 304 300 289 269 263 266 272 282 267 261 262 252 249 251 268 266
57 61 78 29 358 41 260 44 17 11 95 91 93 94 92 89 112 137 162 87 31 22 15 15 333 337 323 313 294 289 293 313 321 319 309 296 261 258 269 281 282 266 268 267 274 276 271 280 277
33 75 68 60 15 25 42 36 15 71 81 84 97 119 104 115 118 156 356 56 45 21 20 39 48 17 324 304 293 302 307 313 319 317 311 338 294 314 303 298 294 257 253 266 277 271 288 292 281
92 101 60 83 48 76 73 68 58 69 94 117 138 140 160 123 54 15 13 3 19 39 33 14 13 7 348 333 327 306 300 320 356 6 352 353 346 356 329 315 341 289 269 272 276 289 277 276 287
105 120 123 113 75 62 68 55 33 28 58 69 23 81 116 44 38 25 34 32 24 36 30 21 6 358 351 349 355 351 346 359 32 26 23 19 17 14 13 11 4 354 349 334 306 303 277 268 271
111 124 116 90 97 92 86 67 57 35 26 30 38 56 60 50 41 57 56 39 23 13 7 12 11 0 6 355 335 327 333 34 43 24 23 14 8 11 15 13 15 17 4 3 352 316 307 292 270
85 139 166 142 125 107 89 61 45 46 45 50 46 41 39 38 29 36 38 27 20 20 11 12 11 12 15 358 351 8 47 42 11 11 10 13 14 20 23 22 15 7 349 349 334 313 286 300 286
68 316 177 147 171 117 341 111 45 17 48 47 50 44 41 32 24 25 16 20 20 22 34 45 41 39 38 31 41 42 39 33 10 4 9 8 16 21 17 12 10 5 342 334 322 316 307 313 305
27 108 140 119 94 163 40 117 100 23 39 32 32 30 36 37 30 27 25 28 34 39 43 48 49 49 46 49 43 38 38 28 13 7 2 3 3 10 9 8 4 359 345 340 326 321 320 308 288
139 97 73 69 95 106 13 292 127 18 329 31 45 40 34 36 39 46 55 51 42 44 46 44 42 42 36 35 34 33 27 11 4 2 357 357 359 360 9 359 354 349 344 344 335 321 304 302 289
49 167 169 200 145 46 335 233 75 341 16 11 28 46 40 41 55 56 46 37 35 35 35 36 36 36 29 29 26 21 15 11 7 1 1 355 356 358 2 351 352 346 345 339 332 324 317 307 298
56 315 3 292 197 156 107 199 102 351 82 81 68 61 64 59 54 46 35 30 31 33 36 37 37 36 27 23 21 16 13 9 6 4 357 358 355 348 341 339 338 338 335 333 328 307 316 303 304
110 60 61 108 39 228 46 154 197 189 154 105 72 60 55 48 47 44 32 28 29 34 42 35 38 36 26 20 12 12 8 4 1 358 353 355 346 341 345 340 334 330 330 332 329 330 320 317 310
24 124 202 113 173 243 164 267 224 187 188 122 106 67 76 54 51 43 30 32 32 52 57 45 38 32 22 12 10 8 6 359 353 349 354 351 351 353 348 344 341 337 337 333 329 328 316 315 312
111 124 70 93 339 288 275 160 192 193 164 149 134 27 165 118 37 34 25 28 36 49 41 42 30 24 16 11 4 2 357 357 355 353 352 353 352 351 347 349 344 343 346 338 350 334 323 314 300
18 77 68 311 151 49 336 72 159 194 151 144 123 117 160 335 28 27 20 14 20 22 29 38 26 17 17 7 2 2 355 356 0 3 3 2 0 357 348 348 350 3 355 5 343 343 341 332 325